Location: Baix
(44.7118°N, 4.7648°E)
Time: 16:48:57
(UTC+00:00)

USA 267 - Pass Details

Date: 07 August 2020
Orbit: 1101 x 1106 km, 123.0° (Epoch: 22 September)

Event Time Altitude Azimuth Distance (km) Brightness Sun altitude
Rises 02:12:19 0° 114° (ESE) 3,911 6.3 -20.6°
Reaches altitude 10° 02:14:48 10° 112° (ESE) 2,956 5.7 -20.3°
Maximum altitude 02:21:15 66° 32° (NNE) 1,199 3.7 -19.6°
Drops below altitude 10° 02:27:43 10° 312° (NW) 2,968 5.5 -18.8°
Sets 02:30:13 0° 310° (NW) 3,929 6.2 -18.5°
